User: anonymous   Login
Location: Vancouver
(49.2500°N, 123.1330°W)
Time: 08:13:10
(UTC-07:00)
Language:

Oscar 11 - Orbit

View from above orbital plane
View from above orbital plane
View from above satellite
View from above satellite

Ground track
Ground track

The orbit data is extracted from the following two-line orbital elements,

1 14781U 84021B   15181.73597329  .00000266  00000-0  39645-4 0  9992
2 14781 097.8008 238.4843 0009350 035.5549 324.6285 14.82432330684036
Epoch (UTC): 30 June 2015 17:39:48
Eccentricity: 0.0009350
inclination: 97.8008°
perigee height: 615 km
apogee height: 628 km
right ascension of ascending node: 238.4843°
argument of perigee: 35.5549°
revolutions per day: 14.82432330
mean anomaly at epoch: 324.6285°
orbit number at epoch: 68403

The dashed part of the orbit path shows where the satellite is in the earth's shadow,  

DLR